Weather in Lbishche

Russia / Samara Oblast     53°09′28″N   49°33′55″E
temp.,
°C
wind,
m/s
gust,
m/s
humid.,
%
clouds,
%
prec.,
mm/h
press.,
hPa
HPBL,
m
6 march, sat
sat601:00−10wsw119257 0.0 101221
04:00−12wsw129329 0.0 101421
07:00−13wsw229659 0.0 101421
10:00−9wnw249051 0.0 1015205
13:00−6nnw349067 0.0 1016402
16:00−6n238083 0.0 1015362
19:00−10nne1279100 0.0 101421
22:00−12ne1173100 0.0 101421
7 march, sun
sun701:00−12nne0075100 0.0 101321
04:00−15nnw127167 0.0 101320
07:00−16wnw11813 0.0 101220
10:00−11wsw239219 0.0 1013154
13:00−8sw459471 0.0 1012324
16:00−8sw579383 0.1 1011492
19:00−10ssw51395100 0.0 1009379
22:00−8ssw71594100 0.3 1007729
8 march, mon
mon801:00−5ssw101795100 2.1 10021067
04:00−4sw101795100 3.8 1000989
07:00−4w61092100 1.1 1000594
10:00−6wsw597660 1.1 1002312
13:00−4sw610774 0.0 1002641
16:00−3sw8138039 0.0 10011252
19:00−4sw61592100 0.0 1001741
22:00−9w3687100 0.1 1004140
9 march, tue
tue901:00−13w349368 0.0 100556
04:00−16w229735 0.0 100721
07:00−18w22993 0.0 100920
10:00−13w359423 0.0 1010237
13:00−9wnw468778 0.0 1011626
16:00−9wnw468488 0.1 1012708
19:00−14nw348955 0.0 101254
22:00−16nnw239749 0.0 101421
10 march, wed
wed1001:00−18nnw339494 0.0 101546
04:00−19nnw349497 0.0 101587
07:00−22nnw339899 0.0 101635
10:00−19nnw469685 0.0 1017273
13:00−17nw469199 0.0 1018480
16:00−16nnw578899 0.1 1018706
19:00−20nnw379696 0.0 1019122
22:00−22nnw379987 0.1 1021135